THOR ABLESTAR DEB, 672

Orbit data source: Space-Track

THOR ABLESTAR DEB, 672 is space debris in LEO originally from a launch on Sat, 28 Sep 1963 UTC launched from the Air Force Western Test Range (AFWTR). Debris objects in space refer to the collection of defunct objects orbiting the Earth. Examples of debris include non-operational satellites, rocket bodies, and fragments generated from explosions, collisions, or faulty payload assembly.

Loading next visibility...
Identifier
672, 1963-038D
Orbit
LEO
Country
Flag of USUS
Related business
Manufacturer
Unknown
Mission
Spacecraft
Bus & Motor
Unknown
Mass
Unknown
Launch date (UTC)
1963-09-28 (63 years ago)
Launch vehicle
Unknown
Launch site
Air Force Western Test Range (AFWTR)
Object type
Payload
Rocket body
Debris
Shape & HBR
Unknown shape, 0.1 m
Radar Cross Section
Medium (>0.1 m² and <1 m²)

Expand to show TLE details & history
Last TLE update: 13 hours ago

TLE from 13 hours ago
0 THOR ABLESTAR DEB
1 00672U 63038D   26237.29826792 -.00000144  00000-0 -17803-3 0  9993
2 00672  89.9880 335.8704 0025086 219.9880 202.5945 13.68967280111300
Epoch: 2026-08-25T07:09Z
TLE epoch observation values (Epoch: 2026-08-25T07:09:30.348Z)
Latitude
62.55913°
Longitude
-105.05068°
Altitude
1,031.213 km
Speed
7.333 km/s
True Right ascension
22h 23m 34s
True Declination
62° 25' 24"
Sunlit
Object was in daylight at epoch
Visualization orbit readout
Latitude
Unknown
Longitude
Unknown
Altitude
Unknown
Speed
Unknown
Apparent Right ascension
Unknown
Apparent Declination
Unknown
Sunlit
N/A
Visualization observer readout
Local Sidereal Time
10:58:19
Azimuth
Unknown
Elevation
Unknown
Doppler factor
Unknown
Orbital elements
Apogee altitude
1,018.813 km
Perigee altitude
981.794 km
Semi-major axis
7,378.44 km
Eccentricity
0.00251
Inclination
89.988°
RAAN
335.8704°
Arg. of periapsis
219.988°
True anomaly
202.48437°
Mean anomaly
202.5945°
Eccentric anomaly
202.5394°
Mean motion
3.42449 °/min
Orbital period
105.13 mins
BSTAR
-0.00017803
Loading maneuver chart data...
Computing Atmospheric mass density...

Documentation

Showing up to 5 results
|